GFSNE_250_spd_000.txt.gz
Wind_Speed
107 105 102 99 96 94 92 87 82 80 80 83 85 86 90 91 90 87 89 96 105 112 112 112 113 119 125 127 123 120 115 110 112 115 111 109 106 106
100 98 96 92 87 84 80 77 74 71 71 74 79 82 86 91 90 82 80 82 94 106 108 109 112 116 121 127 129 127 123 119 113 113 118 115 111 110
90 85 79 76 73 71 69 68 66 65 64 70 73 77 82 86 90 83 77 81 90 101 105 105 109 115 120 125 130 132 129 126 121 118 116 119 120 115
81 78 73 70 67 65 62 61 60 59 58 62 68 72 75 79 83 82 78 81 85 89 98 105 108 114 119 124 130 135 136 133 130 125 123 117 120 123
75 73 70 67 62 59 57 56 55 54 54 56 63 65 70 74 74 75 75 78 83 90 95 94 103 109 118 125 128 135 139 139 135 132 128 125 120 121
67 65 64 63 60 55 53 52 52 52 50 50 55 59 63 66 67 70 71 73 80 90 95 92 94 103 109 121 126 130 136 139 139 139 137 133 129 126
62 59 57 58 57 53 49 49 49 47 49 50 52 55 56 57 59 62 64 68 73 81 88 92 91 95 101 111 122 128 132 136 137 138 141 140 136 132
58 54 51 50 49 49 46 46 46 44 45 48 50 51 53 52 51 54 57 61 64 69 77 85 89 89 95 101 111 119 125 129 132 137 139 142 143 140
51 49 47 46 45 44 45 43 43 43 43 44 46 47 48 49 47 49 53 55 57 62 67 76 84 87 91 94 97 106 114 119 124 129 135 140 143 145
43 43 45 45 40 39 41 38 38 39 40 41 42 42 44 44 47 47 48 49 53 57 60 65 74 80 84 85 89 94 101 107 111 118 126 132 138 141
43 42 43 43 37 35 36 32 32 33 35 37 37 36 38 42 44 48 49 48 51 54 57 60 68 71 76 80 85 90 94 96 99 105 115 121 127 133
39 39 38 36 35 34 33 30 28 31 32 32 33 33 35 37 39 42 44 45 46 50 52 52 60 64 69 75 81 85 86 90 94 96 101 109 112 120
36 34 32 30 30 31 31 28 28 27 28 29 30 30 31 32 34 37 39 40 44 48 46 50 59 61 65 71 76 81 83 85 89 94 98 102 104 108
31 28 26 25 24 25 26 26 26 25 26 27 28 27 28 29 30 33 34 36 40 42 43 47 54 57 61 67 70 75 81 85 88 92 96 99 101 102
28 25 23 22 21 21 22 23 24 24 24 26 26 27 27 29 30 32 33 35 38 39 40 44 48 52 55 61 66 70 75 79 86 91 95 98 100 100
25 22 21 20 19 19 20 21 21 22 23 25 26 26 28 29 30 30 32 33 35 36 39 43 47 49 52 54 57 62 68 74 79 84 90 94 98 101
22 20 19 18 17 17 18 19 20 22 23 24 24 26 27 27 27 28 29 31 32 33 35 38 42 45 47 50 54 57 59 65 72 78 82 87 93 98
21 19 19 18 17 17 17 18 19 21 21 22 22 23 24 26 27 27 28 29 30 30 31 32 34 39 42 44 46 50 55 60 66 71 77 81 86 90
20 18 18 18 18 17 17 18 19 20 21 21 21 22 24 25 26 27 27 27 28 29 29 29 30 32 36 39 41 43 48 54 60 66 71 75 79 82
20 19 18 18 18 18 18 19 20 20 21 21 21 22 23 24 25 26 25 26 26 28 28 28 29 28 29 33 38 39 42 47 52 60 65 69 73 76
20 20 19 20 20 20 20 21 22 22 22 23 23 24 24 24 24 25 25 25 26 25 27 30 30 29 29 30 34 38 40 41 46 52 59 63 66 70
21 21 21 21 21 22 22 23 24 24 24 25 25 25 26 26 25 25 26 25 25 25 25 27 30 29 29 29 31 35 38 40 43 47 53 57 60 63
23 23 22 23 23 23 24 24 25 25 25 26 26 27 27 26 26 26 26 26 26 26 26 27 28 30 30 29 30 32 34 38 40 43 47 52 55 57

GFSNE_250_spd_003.txt.gz
Wind_Speed
100 96 92 90 87 86 84 81 77 76 76 82 85 86 85 85 90 95 99 99 109 118 123 130 128 120 122 124 127 126 123 120 115 114 118 114 116 111
94 88 86 82 79 77 74 71 67 62 65 71 73 78 81 81 84 90 92 100 101 104 106 118 129 128 124 122 122 125 129 127 124 119 116 119 118 115
84 80 78 74 71 69 67 65 62 58 56 67 66 70 74 76 81 88 89 93 96 95 94 99 119 128 124 120 125 126 125 132 131 127 123 118 121 121
76 73 70 69 68 65 62 60 59 59 55 61 64 65 67 71 74 80 85 89 93 91 90 99 107 113 116 119 125 127 128 128 135 134 131 125 119 121
71 70 66 63 63 62 58 55 53 54 54 55 60 62 63 66 69 72 77 81 84 85 85 97 104 107 111 112 118 123 128 130 130 136 137 132 128 122
67 64 62 60 57 56 54 54 51 51 52 53 56 56 59 61 64 65 68 73 75 76 78 90 99 105 106 108 111 116 122 126 130 132 139 139 135 130
62 61 60 57 54 51 51 51 46 45 48 49 52 54 54 56 57 57 60 64 69 72 75 83 94 102 105 107 112 115 119 122 124 129 133 138 140 137
59 58 55 52 49 45 44 45 42 40 41 42 45 47 49 50 51 51 52 54 58 62 69 75 85 96 100 101 103 108 111 117 122 128 133 138 138 141
51 50 49 46 44 40 39 38 36 35 37 37 38 40 40 42 43 48 48 50 54 59 66 73 79 86 92 96 97 100 105 111 117 123 128 134 136 136
48 47 46 42 38 37 39 35 32 34 36 35 36 36 39 38 40 42 44 48 52 55 58 65 72 80 84 88 92 95 98 105 112 118 122 127 130 134
42 40 40 38 36 36 35 32 32 32 32 32 32 34 36 36 39 41 42 46 50 52 53 60 65 72 77 82 87 91 94 99 104 109 117 123 127 131
39 37 35 35 33 32 30 29 30 29 30 30 29 30 32 34 37 39 41 43 45 47 44 54 61 65 70 77 82 85 89 93 98 102 107 114 120 127
36 33 31 29 28 26 25 26 27 27 28 28 27 27 28 29 32 34 36 39 42 42 45 50 54 58 64 69 74 78 82 87 92 98 102 106 111 114
33 31 28 25 23 22 21 21 22 24 26 26 26 26 26 27 29 30 31 34 36 39 45 48 50 54 58 63 67 71 76 81 85 91 97 102 104 105
31 28 25 22 20 20 19 19 20 22 23 24 24 25 25 25 26 27 29 30 31 34 38 42 46 51 53 57 62 65 69 75 79 83 88 94 99 100
28 25 23 20 18 18 18 18 18 19 19 21 23 24 23 24 25 25 26 28 30 32 35 37 39 42 47 53 57 58 64 69 73 78 82 85 91 95
26 23 21 19 17 16 16 16 17 18 18 19 21 22 23 23 24 26 27 29 31 33 35 38 40 41 43 45 50 55 59 64 68 72 76 81 86 89
24 22 19 17 16 16 16 16 17 17 18 19 20 22 23 24 26 26 26 27 28 30 32 34 37 39 40 43 46 50 54 58 62 67 71 76 81 85
23 21 18 17 15 15 16 17 17 18 18 19 21 23 24 25 25 24 25 27 27 29 31 31 33 36 37 40 42 46 49 53 58 61 65 70 73 78
24 21 19 17 16 16 16 18 18 19 20 21 22 23 24 25 25 26 25 26 27 28 29 30 30 32 32 32 37 40 44 47 52 57 62 66 68 70
25 23 21 19 18 18 18 19 20 21 22 23 23 24 25 26 27 27 27 27 28 28 28 28 29 30 30 31 33 38 40 42 46 51 57 61 65 68
26 25 23 21 21 20 20 21 22 24 25 25 26 26 27 28 28 29 29 28 29 29 29 28 29 29 31 32 33 34 38 39 42 46 50 55 61 65
27 25 24 24 23 23 23 23 24 25 27 27 27 28 28 28 29 29 29 29 30 30 30 30 31 31 31 32 32 33 34 37 39 42 46 49 53 58

GFSNE_250_spd_006.txt.gz
Wind_Speed
98 93 89 86 85 83 82 79 75 72 73 85 94 95 94 93 94 96 101 105 114 120 128 131 135 135 132 130 128 126 125 125 121 117 114 113 113 114
86 81 78 75 75 74 73 71 71 66 66 74 83 88 89 90 93 93 94 101 108 115 119 122 127 126 125 134 135 131 130 130 127 123 119 118 118 117
82 76 73 70 69 67 65 64 63 61 56 69 74 76 80 82 85 87 89 94 100 110 117 120 122 120 118 130 137 135 132 134 133 130 127 124 122 123
75 72 70 67 64 63 62 62 60 58 55 61 68 70 71 74 76 78 81 85 93 101 110 118 118 115 113 119 125 128 131 137 138 138 135 131 128 126
69 67 64 62 60 57 54 56 56 54 51 54 63 63 65 66 71 72 74 78 86 93 100 111 115 113 109 111 114 116 126 133 135 139 137 137 135 134
64 62 60 58 56 55 53 52 51 51 50 48 56 57 56 59 62 65 69 72 78 85 90 97 104 108 108 109 109 107 115 125 134 137 139 138 140 138
62 58 55 53 49 48 49 48 45 45 47 47 49 54 55 55 54 57 61 66 71 75 79 83 92 97 104 105 108 107 109 116 129 136 140 142 143 144
56 54 51 47 46 44 43 44 43 43 43 42 44 50 51 48 48 50 55 58 63 69 72 76 82 88 94 100 104 105 106 111 118 129 137 139 142 145
51 50 49 45 43 41 39 41 42 41 38 40 44 46 44 42 42 48 51 53 57 61 66 69 76 81 85 90 94 102 108 112 116 120 132 134 134 136
49 48 46 44 42 40 37 35 35 36 35 40 41 37 37 38 42 44 45 48 52 55 59 62 66 74 77 82 87 96 105 111 115 116 118 122 127 130
43 42 42 39 38 34 33 32 32 32 33 34 32 33 34 37 39 41 42 45 49 51 54 58 60 67 70 75 81 90 100 108 110 109 110 112 119 124
41 38 36 34 32 30 29 28 27 27 29 29 30 31 30 32 35 36 38 40 42 45 50 57 57 60 65 71 77 83 90 96 100 102 104 107 112 118
38 34 32 30 29 26 25 23 22 22 23 25 26 27 27 28 29 30 33 35 39 41 49 54 55 56 60 62 67 74 80 86 89 92 95 101 106 110
36 33 30 27 25 22 21 20 19 19 20 22 24 25 26 26 27 28 29 31 35 40 43 48 52 55 58 60 62 65 72 78 81 84 87 91 97 101
34 30 27 25 22 20 19 17 16 16 18 19 22 23 24 24 25 26 28 30 33 36 38 42 47 50 54 57 57 60 65 70 74 77 78 82 89 96
30 28 25 23 21 19 18 15 14 14 15 17 18 21 22 23 24 25 26 29 31 34 36 39 42 46 49 53 55 56 60 64 66 69 72 75 81 86
28 26 24 22 20 19 18 16 14 13 14 16 18 19 20 21 22 24 25 27 30 31 33 36 39 41 43 48 50 52 55 58 61 64 68 70 73 78
26 25 23 21 20 18 18 16 14 13 14 15 16 17 19 20 21 23 24 26 27 29 31 34 36 38 40 43 44 45 49 54 57 60 62 65 66 68
25 23 22 21 20 18 18 17 16 15 15 16 17 19 19 19 20 21 23 25 26 29 31 33 34 36 39 41 43 44 46 48 51 55 59 60 61 64
25 23 22 22 21 20 19 19 19 18 17 19 19 19 20 21 22 23 24 24 26 27 29 30 32 34 35 37 39 42 44 46 49 51 52 55 58 61
25 24 23 22 22 22 22 21 21 20 20 21 22 22 22 23 24 24 24 24 26 27 29 29 31 32 33 34 36 37 40 43 45 47 50 52 55 57
26 26 24 23 22 22 24 24 24 23 22 23 24 24 25 26 27 27 26 27 27 27 28 29 31 32 33 34 34 35 36 39 42 44 46 48 51 55
28 27 25 24 23 23 24 26 26 26 26 26 26 26 27 28 28 28 28 28 28 28 29 31 32 33 33 32 33 35 36 37 39 42 44 45 47 51

GFSNE_250_spd_009.txt.gz
Wind_Speed
99 93 88 85 83 82 79 75 70 67 70 78 87 92 96 96 96 99 101 105 109 115 120 125 129 130 131 132 129 123 118 116 117 114 108 107 103 106
88 84 79 74 73 72 70 68 66 62 61 66 77 83 87 88 89 94 99 101 105 109 112 115 123 130 133 133 129 128 129 124 123 120 116 113 110 107
80 76 73 70 68 67 65 65 64 61 58 60 68 75 77 77 79 83 89 96 101 106 108 112 115 124 131 133 129 131 136 134 131 128 123 118 117 113
75 73 71 68 65 62 60 60 59 59 54 55 62 71 71 69 72 74 78 84 91 99 104 108 114 116 123 125 127 133 137 140 135 136 134 126 123 120
70 67 65 65 63 61 57 54 53 55 54 53 58 63 66 66 66 68 71 73 78 85 93 102 110 114 116 119 121 124 133 138 138 140 140 137 132 126
67 64 62 61 59 56 54 53 51 51 50 50 56 57 59 61 60 60 64 65 72 76 80 90 100 108 114 112 115 116 124 128 132 137 139 141 139 136
63 61 59 57 53 51 52 51 50 49 46 44 49 53 56 57 54 53 57 61 66 72 74 79 87 97 103 107 111 111 115 116 122 126 135 139 141 143
59 57 56 52 49 47 44 43 45 47 44 42 43 47 48 52 52 50 54 57 64 71 71 74 78 84 88 99 106 108 107 108 107 114 120 132 139 143
54 54 53 49 47 45 41 38 39 41 41 39 39 44 44 43 45 47 50 55 59 63 67 70 75 78 79 86 96 103 105 103 102 106 106 114 126 138
52 52 52 48 45 42 39 37 36 36 36 34 34 38 40 37 40 41 45 52 55 60 63 65 67 72 75 79 86 92 98 99 99 101 101 104 113 123
47 45 44 41 38 36 35 34 33 32 32 30 31 34 35 37 38 40 42 46 48 50 57 60 60 63 68 74 80 84 87 90 93 97 101 104 111 114
43 42 40 38 35 33 31 30 28 27 26 25 26 29 30 33 34 34 37 39 39 44 51 57 54 59 62 67 73 77 79 82 84 88 98 103 106 113
44 41 37 34 31 28 27 24 23 22 22 21 22 25 27 29 29 30 32 34 36 40 49 52 51 57 61 64 66 69 72 76 79 81 87 96 104 111
41 38 34 31 27 25 23 20 18 18 18 18 19 21 24 25 27 27 28 31 37 42 43 43 45 50 55 59 61 63 66 69 74 79 83 88 94 103
39 35 32 29 25 23 21 18 16 16 16 16 17 18 20 23 25 25 27 31 32 34 37 41 43 45 48 52 56 59 61 63 67 73 76 81 86 92
36 33 29 26 23 21 19 17 16 16 15 15 16 17 18 20 22 23 25 27 29 31 32 36 40 42 45 49 51 56 59 61 62 64 68 74 80 86
34 31 27 25 22 20 18 17 15 15 15 15 14 15 16 17 19 22 23 24 26 27 29 31 34 37 40 44 47 50 53 56 58 60 62 65 69 73
33 29 26 24 22 20 18 17 15 15 15 14 13 14 15 16 18 19 20 22 23 25 27 30 31 33 36 39 42 44 47 51 54 56 56 58 59 63
31 28 26 23 22 20 18 17 16 15 15 15 15 15 16 16 17 19 21 22 24 26 27 29 31 32 34 36 37 38 41 44 48 51 53 54 54 56
28 27 25 23 22 20 19 18 17 18 17 17 17 16 17 18 20 21 23 24 25 26 28 30 31 33 35 36 36 39 40 41 43 46 48 49 50 53
27 26 26 24 23 21 20 19 19 19 20 19 19 20 21 21 22 23 23 24 25 26 28 30 31 32 34 35 37 38 38 39 41 44 46 47 47 48
28 26 26 25 24 23 21 21 20 21 22 22 22 22 23 24 25 25 25 25 25 26 27 29 31 32 34 34 36 38 38 38 39 40 43 44 46 47
29 27 26 26 25 24 23 22 22 22 23 24 25 25 25 26 26 27 27 28 28 28 29 31 32 33 33 33 34 34 35 35 36 38 41 43 44 46

GFSNE_250_spd_012.txt.gz
Wind_Speed
106 100 94 89 85 81 76 73 70 69 72 75 76 75 77 80 81 85 89 94 100 104 113 121 127 133 136 135 131 128 123 121 118 114 109 103 99 98
93 89 85 81 79 74 71 68 65 62 62 71 73 72 70 73 74 78 83 87 92 97 102 111 120 125 129 135 137 133 130 128 125 122 119 112 106 102
87 83 80 76 74 70 66 63 61 58 54 63 67 71 69 68 67 69 76 81 84 89 93 100 108 116 121 126 135 138 136 133 134 130 127 121 115 111
82 79 75 71 68 65 63 60 56 54 49 53 63 65 66 64 64 64 68 73 76 80 85 92 97 103 111 117 124 131 136 135 137 135 130 125 122 117
76 73 70 67 65 62 59 56 53 53 50 48 59 60 62 61 61 60 62 66 70 73 77 83 90 96 101 107 114 120 127 131 130 135 136 135 130 126
70 69 66 62 59 57 56 54 50 49 46 45 50 55 56 56 55 57 55 59 65 69 71 76 83 89 95 99 103 112 119 122 127 130 135 137 136 134
66 63 60 58 55 53 51 52 49 47 45 44 45 48 50 53 48 50 54 53 60 66 69 71 76 82 89 95 98 100 107 112 120 126 131 135 139 140
62 62 60 58 55 52 49 47 46 46 43 41 42 44 45 49 47 45 50 51 54 62 67 68 70 76 82 90 90 95 103 105 106 116 125 130 132 139
60 59 57 54 50 48 45 42 41 41 40 39 39 41 43 41 43 43 45 48 51 57 64 66 65 69 75 82 82 87 95 99 104 109 111 120 124 134
54 53 50 49 46 45 43 39 36 36 34 33 33 35 38 39 38 38 40 45 48 55 58 59 59 64 69 73 76 84 89 94 100 103 104 108 115 125
52 49 47 45 42 41 39 36 35 34 33 32 31 31 32 34 34 35 39 42 42 45 53 55 54 56 63 68 73 78 82 86 91 95 98 100 105 113
51 47 44 41 39 37 35 33 31 30 30 29 28 28 28 29 30 31 34 34 34 39 50 48 47 53 58 63 67 72 77 79 83 87 90 95 97 101
50 46 40 38 34 33 31 29 27 26 25 24 23 23 24 25 27 29 30 31 34 37 41 39 43 49 55 60 62 65 69 74 76 80 83 86 88 91
47 42 38 35 32 30 28 26 24 22 21 20 19 20 21 21 23 25 26 30 34 38 37 37 39 42 47 54 58 61 64 68 71 75 79 82 83 85
42 39 37 33 30 27 26 23 21 19 19 18 18 18 18 19 22 24 27 29 29 29 30 35 37 39 42 47 53 58 62 64 67 69 73 76 77 78
39 38 35 31 28 26 24 21 19 17 17 17 17 17 17 18 21 22 24 25 26 28 31 34 36 37 40 43 47 51 55 58 60 62 65 69 71 72
37 38 35 30 27 25 22 19 18 16 16 16 15 16 17 18 19 20 22 24 24 26 28 30 33 36 39 41 44 46 48 51 54 57 59 61 63 65
38 36 35 30 26 25 23 20 17 16 15 15 15 15 16 17 18 20 22 23 23 24 25 28 30 33 36 39 41 43 45 46 49 53 55 57 58 59
38 35 32 31 27 25 23 20 18 17 15 15 15 15 16 16 18 20 22 23 24 24 25 26 27 29 32 35 37 39 42 44 47 49 52 53 54 58
36 34 31 30 27 24 23 22 19 18 17 16 16 17 17 17 19 20 21 22 24 25 25 25 26 27 28 30 33 35 38 41 43 45 47 48 51 55
33 32 31 29 27 26 23 22 21 19 18 18 18 18 18 19 20 21 22 22 24 24 26 27 27 28 29 31 33 35 36 38 40 42 43 45 48 50
33 32 31 30 28 27 25 22 21 20 19 20 20 21 20 20 22 23 23 24 25 26 27 28 29 30 30 31 32 33 34 36 37 39 41 44 46 46
33 32 31 30 29 28 26 24 22 22 21 21 21 22 23 23 23 25 27 28 28 29 30 30 30 30 30 31 33 34 34 35 36 37 39 41 44 46